UAL3933 KIAH-KEWR

Flight info

Callsign UAL3933
Flight time 2h 44m
Altitude 39000
Route GUMBY3 GUSTI Q22 UMBRE QUART PHLBO4
Aircraft B772/H-SDE2E3FGHIJ5LORVWXY/LB1D1

Departure

Time 2026-04-26 00:01
Airport George Bush Intercontinental Airport (KIAH)

Arrival

Time 2026-04-26 02:45
Airport Newark Liberty International Airport (KEWR)
Time Latitude Longitude Altitude Speed Heading
2026-04-25 23:19 29.98998 -95.34109 107 ft 0 kts 270°
2026-04-25 23:47 29.98998 -95.34102 107 ft 2 kts 270°
2026-04-25 23:47 29.98998 -95.34085 107 ft 2 kts 270°
2026-04-25 23:47 29.98998 -95.34067 107 ft 2 kts 270°
2026-04-25 23:48 29.98998 -95.34050 107 ft 1 kts 271°
2026-04-25 23:48 29.98994 -95.34037 107 ft 1 kts 331°
2026-04-25 23:48 29.98981 -95.34035 107 ft 2 kts
2026-04-25 23:48 29.98968 -95.34036 107 ft 2 kts
2026-04-25 23:49 29.98953 -95.34036 107 ft 2 kts 359°
2026-04-25 23:49 29.98938 -95.34036 107 ft 2 kts 360°
2026-04-25 23:49 29.98926 -95.34036 107 ft 0 kts
2026-04-25 23:52 29.98931 -95.34036 107 ft 3 kts
2026-04-25 23:52 29.98981 -95.34036 107 ft 8 kts 359°
2026-04-25 23:53 29.99033 -95.34037 107 ft 6 kts 358°
2026-04-25 23:53 29.99076 -95.34058 107 ft 7 kts 307°
2026-04-25 23:53 29.99089 -95.34131 107 ft 9 kts 271°
2026-04-25 23:53 29.99089 -95.34199 107 ft 7 kts 270°
2026-04-25 23:54 29.99089 -95.34252 107 ft 5 kts 269°
2026-04-25 23:54 29.99089 -95.34296 107 ft 6 kts 270°
2026-04-25 23:54 29.99088 -95.34354 107 ft 7 kts 269°
2026-04-25 23:54 29.99088 -95.34413 107 ft 6 kts 270°
2026-04-25 23:55 29.99088 -95.34476 107 ft 9 kts 270°
2026-04-25 23:55 29.99088 -95.34558 107 ft 10 kts 270°
2026-04-25 23:55 29.99088 -95.34641 107 ft 9 kts 270°
2026-04-25 23:55 29.99088 -95.34714 107 ft 9 kts 270°
2026-04-25 23:56 29.99088 -95.34785 107 ft 7 kts 270°
2026-04-25 23:56 29.99088 -95.34855 106 ft 10 kts 270°
2026-04-25 23:56 29.99087 -95.34954 104 ft 14 kts 270°
2026-04-25 23:56 29.99088 -95.35071 104 ft 14 kts 270°
2026-04-25 23:57 29.99087 -95.35170 104 ft 11 kts 270°
2026-04-25 23:57 29.99087 -95.35245 105 ft 6 kts 270°
2026-04-25 23:57 29.99088 -95.35265 105 ft 4 kts 270°
2026-04-25 23:57 29.99088 -95.35329 105 ft 11 kts 270°
2026-04-25 23:58 29.99085 -95.35432 105 ft 13 kts 257°
2026-04-25 23:58 29.99008 -95.35488 104 ft 14 kts 187°
2026-04-25 23:58 29.98922 -95.35506 104 ft 11 kts 212°
2026-04-25 23:58 29.98879 -95.35574 104 ft 10 kts 240°
2026-04-25 23:59 29.98845 -95.35642 104 ft 8 kts 241°
2026-04-25 23:59 29.98822 -95.35693 104 ft 5 kts 242°
2026-04-25 23:59 29.98797 -95.35744 104 ft 8 kts 241°
2026-04-25 23:59 29.98745 -95.35761 104 ft 9 kts 160°
2026-04-26 00:00 29.98690 -95.35728 104 ft 10 kts 152°
2026-04-26 00:00 29.98473 -95.35596 104 ft 67 kts 152°
2026-04-26 00:00 29.97888 -95.35238 104 ft 120 kts 152°
2026-04-26 00:00 29.97017 -95.34705 182 ft 158 kts 153°
2026-04-26 00:01 29.96084 -95.34073 755 ft 160 kts 148°
2026-04-26 00:01 29.95307 -95.33128 1349 ft 169 kts 121°
2026-04-26 00:01 29.94886 -95.31789 1646 ft 189 kts 104°
2026-04-26 00:01 29.94615 -95.30254 2003 ft 204 kts 105°
2026-04-26 00:02 29.94320 -95.28598 2390 ft 218 kts 104°
2026-04-26 00:02 29.94015 -95.26828 2806 ft 232 kts 102°
2026-04-26 00:02 29.93742 -95.24925 3153 ft 250 kts 97°
2026-04-26 00:02 29.93703 -95.22859 3533 ft 265 kts 90°
2026-04-26 00:03 29.93747 -95.20736 3927 ft 270 kts 90°
2026-04-26 00:03 29.93788 -95.18554 3982 ft 270 kts 90°
2026-04-26 00:03 29.93823 -95.16399 3986 ft 270 kts 91°
2026-04-26 00:03 29.93855 -95.14245 3987 ft 269 kts 90°
2026-04-26 00:04 29.93886 -95.12067 3996 ft 270 kts 90°
2026-04-26 00:04 29.93917 -95.09860 4294 ft 279 kts 90°
2026-04-26 00:04 29.93920 -95.07673 5005 ft 278 kts 94°
2026-04-26 00:04 29.93736 -95.05436 5624 ft 280 kts 98°
2026-04-26 00:05 29.93508 -95.03236 6400 ft 278 kts 98°
2026-04-26 00:05 29.93282 -95.01031 6966 ft 283 kts 97°
2026-04-26 00:05 29.93050 -94.98739 7509 ft 288 kts 97°
2026-04-26 00:05 29.92821 -94.96448 8146 ft 289 kts 96°
2026-04-26 00:06 29.92591 -94.94163 8688 ft 294 kts 96°
2026-04-26 00:06 29.92356 -94.91819 9230 ft 298 kts 95°
2026-04-26 00:06 29.92116 -94.89439 9812 ft 300 kts 95°
2026-04-26 00:06 29.91875 -94.87044 10236 ft 310 kts 95°
2026-04-26 00:07 29.91620 -94.84508 10467 ft 327 kts 95°
2026-04-26 00:07 29.91349 -94.81829 10685 ft 344 kts 95°
2026-04-26 00:07 29.91066 -94.79042 10907 ft 360 kts 95°
2026-04-26 00:07 29.90768 -94.76128 11152 ft 375 kts 95°
2026-04-26 00:08 29.90456 -94.73078 11390 ft 389 kts 95°
2026-04-26 00:08 29.90135 -94.69949 11757 ft 398 kts 95°
2026-04-26 00:08 29.89807 -94.66761 12246 ft 404 kts 95°
2026-04-26 00:08 29.89476 -94.63546 12830 ft 408 kts 95°
2026-04-26 00:09 29.89140 -94.60293 13409 ft 414 kts 95°
2026-04-26 00:09 29.88802 -94.57024 14013 ft 419 kts 95°
2026-04-26 00:09 29.88457 -94.53686 14691 ft 424 kts 95°
2026-04-26 00:09 29.88103 -94.50279 15376 ft 430 kts 95°
2026-04-26 00:10 29.87748 -94.46866 16066 ft 435 kts 95°
2026-04-26 00:10 29.87384 -94.43378 16739 ft 441 kts 95°
2026-04-26 00:10 29.87015 -94.39842 17363 ft 447 kts 95°
2026-04-26 00:10 29.86642 -94.36296 18038 ft 452 kts 95°
2026-04-26 00:11 29.86260 -94.32655 18712 ft 456 kts 96°
2026-04-26 00:11 29.85975 -94.29009 19332 ft 460 kts 91°
2026-04-26 00:11 29.85885 -94.25330 19948 ft 465 kts 90°
2026-04-26 00:11 29.85804 -94.21625 20569 ft 469 kts 90°
2026-04-26 00:12 29.85711 -94.17821 21188 ft 474 kts 90°
2026-04-26 00:12 29.85611 -94.14055 21788 ft 478 kts 90°
2026-04-26 00:12 29.85504 -94.10240 22342 ft 483 kts 90°
2026-04-26 00:12 29.85392 -94.06318 22899 ft 488 kts 89°
2026-04-26 00:13 29.85545 -94.02451 23438 ft 491 kts 81°
2026-04-26 00:13 29.85949 -93.98560 23945 ft 496 kts 80°
2026-04-26 00:13 29.86386 -93.94569 24500 ft 500 kts 80°
2026-04-26 00:13 29.86812 -93.90649 25071 ft 504 kts 80°
2026-04-26 00:14 29.87251 -93.86585 25564 ft 509 kts 80°
2026-04-26 00:14 29.87681 -93.82571 26066 ft 513 kts 79°
2026-04-26 00:14 29.88119 -93.78463 26562 ft 518 kts 79°
2026-04-26 00:14 29.88553 -93.74372 27072 ft 522 kts 79°
2026-04-26 00:15 29.88993 -93.70209 27554 ft 526 kts 79°
2026-04-26 00:15 29.89432 -93.66032 27991 ft 531 kts 79°
2026-04-26 00:15 29.89876 -93.61800 28452 ft 535 kts 79°
2026-04-26 00:15 29.90321 -93.57529 28924 ft 539 kts 79°
2026-04-26 00:16 29.90766 -93.53247 29420 ft 542 kts 79°
2026-04-26 00:16 29.91217 -93.48899 29913 ft 544 kts 79°
2026-04-26 00:16 29.91657 -93.44630 30430 ft 545 kts 79°
2026-04-26 00:16 29.92107 -93.40258 31015 ft 545 kts 79°
2026-04-26 00:17 29.92543 -93.36004 31614 ft 543 kts 78°
2026-04-26 00:17 29.92983 -93.31687 32184 ft 542 kts 79°
2026-04-26 00:17 29.93427 -93.27334 32622 ft 544 kts 79°
2026-04-26 00:17 29.93867 -93.23014 33065 ft 545 kts 79°
2026-04-26 00:18 29.94305 -93.18686 33572 ft 545 kts 79°
2026-04-26 00:18 29.94747 -93.14301 34149 ft 544 kts 78°
2026-04-26 00:18 29.95178 -93.10008 34742 ft 542 kts 78°
2026-04-26 00:18 29.95617 -93.05634 35308 ft 541 kts 78°
2026-04-26 00:19 29.96045 -93.01354 35798 ft 541 kts 78°
2026-04-26 00:19 29.96475 -92.97041 36180 ft 542 kts 78°
2026-04-26 00:19 29.96903 -92.92733 36528 ft 543 kts 78°
2026-04-26 00:19 29.97542 -92.88476 36875 ft 538 kts 72°
2026-04-26 00:20 29.98347 -92.84307 37258 ft 537 kts 71°
2026-04-26 00:20 29.99174 -92.80096 37662 ft 535 kts 71°
2026-04-26 00:20 29.99991 -92.75929 37974 ft 536 kts 71°
2026-04-26 00:20 30.00805 -92.71766 38277 ft 536 kts 71°
2026-04-26 00:21 30.01622 -92.67572 38505 ft 537 kts 71°
2026-04-26 00:21 30.02443 -92.63345 38684 ft 539 kts 71°
2026-04-26 00:21 30.03253 -92.59162 38833 ft 540 kts 71°
2026-04-26 00:22 30.04877 -92.50736 38832 ft 537 kts 71°
2026-04-26 00:22 30.06489 -92.42345 38839 ft 537 kts 71°
2026-04-26 00:23 30.08097 -92.33940 38833 ft 538 kts 71°
2026-04-26 00:23 30.09703 -92.25512 38829 ft 540 kts 71°
2026-04-26 00:24 30.11304 -92.17072 38844 ft 538 kts 71°
2026-04-26 00:24 30.12898 -92.08643 38851 ft 539 kts 71°
2026-04-26 00:25 30.14492 -92.00182 38854 ft 539 kts 71°
2026-04-26 00:25 30.16076 -91.91740 38858 ft 539 kts 71°
2026-04-26 00:26 30.17663 -91.83250 38852 ft 538 kts 71°
2026-04-26 00:26 30.19220 -91.74886 38858 ft 536 kts 71°
2026-04-26 00:27 30.20779 -91.66488 38861 ft 536 kts 71°
2026-04-26 00:27 30.22328 -91.58103 38856 ft 534 kts 71°
2026-04-26 00:28 30.23876 -91.49703 38854 ft 535 kts 71°
2026-04-26 00:28 30.25416 -91.41315 38857 ft 535 kts 71°
2026-04-26 00:29 30.26947 -91.32936 38847 ft 535 kts 72°
2026-04-26 00:29 30.28475 -91.24543 38844 ft 534 kts 72°
2026-04-26 00:30 30.29993 -91.16174 38851 ft 533 kts 72°
2026-04-26 00:30 30.31512 -91.07770 38854 ft 533 kts 72°
2026-04-26 00:31 30.33019 -90.99400 38853 ft 534 kts 72°
2026-04-26 00:31 30.34518 -90.91039 38855 ft 533 kts 72°
2026-04-26 00:32 30.36013 -90.82670 38852 ft 533 kts 72°
2026-04-26 00:32 30.38255 -90.70062 38858 ft 535 kts 72°
2026-04-26 00:33 30.39739 -90.61663 38860 ft 531 kts 72°
2026-04-26 00:33 30.41211 -90.53311 38875 ft 533 kts 72°
2026-04-26 00:34 30.42676 -90.44960 38875 ft 529 kts 72°
2026-04-26 00:34 30.44145 -90.36563 38876 ft 532 kts 72°
2026-04-26 00:35 30.45595 -90.28235 38862 ft 531 kts 73°
2026-04-26 00:35 30.47046 -90.19865 38863 ft 529 kts 73°
2026-04-26 00:36 30.48961 -90.11681 38859 ft 524 kts 66°
2026-04-26 00:36 30.51078 -90.03665 38846 ft 521 kts 67°
2026-04-26 00:37 30.53164 -89.95635 38853 ft 523 kts 68°
2026-04-26 00:37 30.55230 -89.87584 38854 ft 522 kts 68°
2026-04-26 00:38 30.57283 -89.79524 38862 ft 523 kts 68°
2026-04-26 00:38 30.59323 -89.71462 38870 ft 521 kts 68°
2026-04-26 00:39 30.61359 -89.63387 38871 ft 522 kts 68°
2026-04-26 00:39 30.63388 -89.55305 38870 ft 522 kts 68°
2026-04-26 00:40 30.64765 -89.49805 38872 ft 519 kts 68°
2026-04-26 00:40 30.66606 -89.42434 38871 ft 521 kts 68°
2026-04-26 00:41 30.68351 -89.35430 38877 ft 520 kts 68°
2026-04-26 00:41 30.70342 -89.27411 38858 ft 519 kts 69°
2026-04-26 00:42 30.72342 -89.19335 38863 ft 519 kts 69°
2026-04-26 00:42 30.74333 -89.11276 38863 ft 520 kts 69°
2026-04-26 00:43 30.76302 -89.03271 38865 ft 517 kts 69°
2026-04-26 00:43 30.78279 -88.95225 38860 ft 519 kts 69°
2026-04-26 00:44 30.80252 -88.87159 38862 ft 519 kts 69°
2026-04-26 00:44 30.82219 -88.79101 38862 ft 519 kts 69°
2026-04-26 00:45 30.84172 -88.71075 38867 ft 518 kts 69°
2026-04-26 00:45 30.86118 -88.63052 38867 ft 519 kts 69°
2026-04-26 00:46 30.88074 -88.54964 38865 ft 518 kts 69°
2026-04-26 00:46 30.90009 -88.46944 38874 ft 518 kts 69°
2026-04-26 00:47 30.91985 -88.38885 38868 ft 515 kts 65°
2026-04-26 00:47 30.95032 -88.31458 38862 ft 508 kts 54°
2026-04-26 00:48 30.98513 -88.24391 38867 ft 506 kts 54°
2026-04-26 00:48 31.02010 -88.17268 38858 ft 508 kts 54°
2026-04-26 00:49 31.05501 -88.10122 38861 ft 507 kts 54°
2026-04-26 00:49 31.08960 -88.03020 38861 ft 507 kts 54°
2026-04-26 00:50 31.12434 -87.95867 38874 ft 506 kts 54°
2026-04-26 00:50 31.15899 -87.88718 38870 ft 507 kts 54°
2026-04-26 00:51 31.19362 -87.81558 38868 ft 508 kts 54°
2026-04-26 00:51 31.22822 -87.74387 38871 ft 508 kts 55°
2026-04-26 00:52 31.26277 -87.67213 38871 ft 505 kts 55°
2026-04-26 00:52 31.29735 -87.60032 38869 ft 507 kts 53°
2026-04-26 00:53 31.33878 -87.53553 38872 ft 497 kts 43°
2026-04-26 00:53 31.38347 -87.47384 38873 ft 497 kts 43°
2026-04-26 00:54 31.42795 -87.41226 38876 ft 497 kts 43°
2026-04-26 00:54 31.47273 -87.35014 38877 ft 498 kts 44°
2026-04-26 00:55 31.51703 -87.28851 38864 ft 498 kts 44°
2026-04-26 00:55 31.56164 -87.22634 38866 ft 498 kts 44°
2026-04-26 00:56 31.60609 -87.16428 38870 ft 497 kts 44°
2026-04-26 00:56 31.65044 -87.10224 38867 ft 496 kts 44°
2026-04-26 00:57 31.69486 -87.04003 38867 ft 498 kts 44°
2026-04-26 00:57 31.73893 -86.97818 38875 ft 498 kts 44°
2026-04-26 00:58 31.78330 -86.91582 38876 ft 497 kts 44°
2026-04-26 00:58 31.82781 -86.85316 38876 ft 498 kts 44°
2026-04-26 00:59 31.87198 -86.79087 38879 ft 499 kts 44°
2026-04-26 00:59 31.91635 -86.72819 38874 ft 500 kts 44°
2026-04-26 01:00 31.96050 -86.66573 38870 ft 500 kts 44°
2026-04-26 01:00 32.00477 -86.60298 38867 ft 499 kts 44°
2026-04-26 01:01 32.04899 -86.54019 38868 ft 498 kts 44°
2026-04-26 01:01 32.09316 -86.47739 38852 ft 498 kts 44°
2026-04-26 01:02 32.13736 -86.41444 38867 ft 499 kts 44°
2026-04-26 01:02 32.18144 -86.35156 38866 ft 500 kts 44°
2026-04-26 01:03 32.22581 -86.28813 38859 ft 501 kts 45°
2026-04-26 01:03 32.26986 -86.22508 38857 ft 499 kts 45°
2026-04-26 01:04 32.31387 -86.16196 38855 ft 500 kts 45°
2026-04-26 01:04 32.35825 -86.09822 38870 ft 501 kts 45°
2026-04-26 01:05 32.40243 -86.03466 38856 ft 501 kts 45°
2026-04-26 01:05 32.44656 -85.97105 38858 ft 501 kts 45°
2026-04-26 01:06 32.49075 -85.90724 38866 ft 500 kts 45°
2026-04-26 01:06 32.53487 -85.84345 38862 ft 502 kts 45°
2026-04-26 01:07 32.57895 -85.77959 38867 ft 501 kts 45°
2026-04-26 01:07 32.62310 -85.71551 38871 ft 502 kts 45°
2026-04-26 01:08 32.66714 -85.65150 38874 ft 503 kts 46°
2026-04-26 01:08 32.71120 -85.58733 38879 ft 502 kts 46°
2026-04-26 01:09 32.75532 -85.52297 38887 ft 503 kts 46°
2026-04-26 01:09 32.79912 -85.45898 38885 ft 502 kts 46°
2026-04-26 01:10 32.84317 -85.39449 38887 ft 503 kts 46°
2026-04-26 01:10 32.88728 -85.32981 38871 ft 502 kts 46°
2026-04-26 01:11 32.93126 -85.26521 38875 ft 505 kts 46°
2026-04-26 01:11 32.97503 -85.20079 38881 ft 502 kts 47°
2026-04-26 01:12 33.01891 -85.13613 38880 ft 505 kts 47°
2026-04-26 01:12 33.06301 -85.07101 38891 ft 503 kts 47°
2026-04-26 01:13 33.10690 -85.00607 38886 ft 504 kts 47°
2026-04-26 01:13 33.15070 -84.94116 38892 ft 503 kts 47°
2026-04-26 01:14 33.19470 -84.87585 38888 ft 505 kts 47°
2026-04-26 01:14 33.23850 -84.81071 38897 ft 505 kts 47°
2026-04-26 01:15 33.28241 -84.74530 38899 ft 506 kts 47°
2026-04-26 01:15 33.32633 -84.67974 38904 ft 506 kts 47°
2026-04-26 01:16 33.37025 -84.61408 38896 ft 506 kts 48°
2026-04-26 01:16 33.41414 -84.54833 38895 ft 506 kts 48°
2026-04-26 01:17 33.45809 -84.48238 38897 ft 509 kts 48°
2026-04-26 01:17 33.50212 -84.41619 38895 ft 508 kts 48°
2026-04-26 01:18 33.54595 -84.35019 38894 ft 510 kts 48°
2026-04-26 01:18 33.59005 -84.28365 38889 ft 508 kts 49°
2026-04-26 01:19 33.63395 -84.21729 38885 ft 510 kts 49°
2026-04-26 01:19 33.67768 -84.15108 38892 ft 509 kts 49°
2026-04-26 01:20 33.72171 -84.08429 38891 ft 511 kts 49°
2026-04-26 01:20 33.76562 -84.01754 38894 ft 509 kts 49°
2026-04-26 01:21 33.80946 -83.95078 38898 ft 509 kts 49°
2026-04-26 01:21 33.85316 -83.88413 38898 ft 509 kts 49°
2026-04-26 01:22 33.89691 -83.81727 38900 ft 510 kts 50°
2026-04-26 01:22 33.93929 -83.74914 38901 ft 512 kts 51°
2026-04-26 01:23 33.98138 -83.68043 38904 ft 511 kts 51°
2026-04-26 01:23 34.02363 -83.61146 38902 ft 514 kts 51°
2026-04-26 01:24 34.06606 -83.54217 38903 ft 513 kts 51°
2026-04-26 01:24 34.10840 -83.47292 38902 ft 515 kts 51°
2026-04-26 01:25 34.15069 -83.40363 38901 ft 515 kts 51°
2026-04-26 01:25 34.19327 -83.33377 38886 ft 515 kts 52°
2026-04-26 01:26 34.23559 -83.26420 38884 ft 517 kts 52°
2026-04-26 01:26 34.27819 -83.19402 38881 ft 516 kts 52°
2026-04-26 01:27 34.32032 -83.12449 38884 ft 517 kts 52°
2026-04-26 01:27 34.36288 -83.05413 38884 ft 518 kts 52°
2026-04-26 01:28 34.40513 -82.98412 38895 ft 517 kts 52°
2026-04-26 01:28 34.44767 -82.91353 38897 ft 519 kts 52°
2026-04-26 01:29 34.48988 -82.84332 38902 ft 518 kts 52°
2026-04-26 01:29 34.53255 -82.77221 38907 ft 519 kts 52°
2026-04-26 01:30 34.57476 -82.70172 38913 ft 519 kts 52°
2026-04-26 01:30 34.61710 -82.63090 38914 ft 520 kts 53°
2026-04-26 01:31 34.65527 -82.56691 38915 ft 519 kts 53°
2026-04-26 01:31 34.69776 -82.49555 38921 ft 521 kts 52°
2026-04-26 01:32 34.73985 -82.42472 38924 ft 519 kts 52°
2026-04-26 01:32 34.78235 -82.35307 38922 ft 521 kts 53°
2026-04-26 01:33 34.82460 -82.28168 38906 ft 523 kts 53°
2026-04-26 01:33 34.86717 -82.20962 38911 ft 523 kts 53°
2026-04-26 01:34 34.90945 -82.13789 38908 ft 523 kts 53°
2026-04-26 01:34 34.95147 -82.06646 38909 ft 524 kts 53°
2026-04-26 01:35 34.99388 -81.99422 38907 ft 523 kts 53°
2026-04-26 01:35 35.03606 -81.92223 38905 ft 523 kts 53°
2026-04-26 01:36 35.07969 -81.85149 38902 ft 522 kts 51°
2026-04-26 01:37 35.14604 -81.74485 38900 ft 524 kts 52°
2026-04-26 01:37 35.18979 -81.67419 38911 ft 523 kts 51°
2026-04-26 01:38 35.23349 -81.60342 38920 ft 524 kts 52°
2026-04-26 01:38 35.27748 -81.53198 38928 ft 523 kts 51°
2026-04-26 01:39 35.32122 -81.46081 38922 ft 524 kts 51°
2026-04-26 01:39 35.36463 -81.39000 38922 ft 523 kts 52°
2026-04-26 01:40 35.40866 -81.31803 38910 ft 524 kts 52°
2026-04-26 01:40 35.45221 -81.24670 38915 ft 523 kts 52°
2026-04-26 01:41 35.49558 -81.17552 38915 ft 526 kts 52°
2026-04-26 01:41 35.53945 -81.10336 38915 ft 526 kts 52°
2026-04-26 01:42 35.58298 -81.03161 38916 ft 525 kts 52°
2026-04-26 01:42 35.62648 -80.95977 38918 ft 526 kts 52°
2026-04-26 01:43 35.66998 -80.88778 38920 ft 527 kts 52°
2026-04-26 01:43 35.71347 -80.81564 38925 ft 526 kts 52°
2026-04-26 01:44 35.75724 -80.74290 38921 ft 528 kts 52°
2026-04-26 01:44 35.80046 -80.67092 38925 ft 528 kts 52°
2026-04-26 01:45 35.84441 -80.59758 38923 ft 528 kts 52°
2026-04-26 01:45 35.88770 -80.52518 38920 ft 528 kts 52°
2026-04-26 01:46 35.93126 -80.45218 38918 ft 530 kts 52°
2026-04-26 01:46 35.97481 -80.37902 38914 ft 528 kts 52°
2026-04-26 01:47 36.01840 -80.30589 38893 ft 530 kts 53°
2026-04-26 01:47 36.06171 -80.23309 38906 ft 530 kts 53°
2026-04-26 01:48 36.10561 -80.15914 38903 ft 531 kts 53°
2026-04-26 01:48 36.14919 -80.08559 38899 ft 531 kts 52°
2026-04-26 01:49 36.19264 -80.01207 38906 ft 530 kts 53°
2026-04-26 01:49 36.23613 -79.93835 38907 ft 531 kts 53°
2026-04-26 01:50 36.27949 -79.86469 38912 ft 528 kts 52°
2026-04-26 01:50 36.32281 -79.79095 38903 ft 531 kts 52°
2026-04-26 01:51 36.36644 -79.71651 38902 ft 529 kts 52°
2026-04-26 01:51 36.40974 -79.64249 38909 ft 532 kts 52°
2026-04-26 01:52 36.45315 -79.56809 38904 ft 531 kts 52°
2026-04-26 01:52 36.49614 -79.49427 38906 ft 531 kts 52°
2026-04-26 01:53 36.53973 -79.41924 38911 ft 533 kts 52°
2026-04-26 01:53 36.58296 -79.34468 38912 ft 531 kts 53°
2026-04-26 01:54 36.62606 -79.27019 38895 ft 532 kts 53°
2026-04-26 01:54 36.66902 -79.19577 38894 ft 533 kts 53°
2026-04-26 01:55 36.71234 -79.12054 38888 ft 534 kts 53°
2026-04-26 01:55 36.75523 -79.04591 38890 ft 534 kts 53°
2026-04-26 01:56 36.79839 -78.97064 38892 ft 533 kts 53°
2026-04-26 01:56 36.84134 -78.89548 38890 ft 534 kts 53°
2026-04-26 01:57 36.88423 -78.81977 38891 ft 533 kts 53°
2026-04-26 01:57 36.92706 -78.74400 38896 ft 534 kts 53°
2026-04-26 01:58 36.96950 -78.66878 38896 ft 534 kts 53°
2026-04-26 01:58 37.01244 -78.59251 38899 ft 536 kts 53°
2026-04-26 01:59 37.05513 -78.51649 38918 ft 533 kts 53°
2026-04-26 01:59 37.09771 -78.44052 38901 ft 537 kts 53°
2026-04-26 02:00 37.14028 -78.36439 38908 ft 533 kts 53°
2026-04-26 02:00 37.18292 -78.28796 38888 ft 534 kts 53°
2026-04-26 02:01 37.22188 -78.20859 38892 ft 536 kts 59°
2026-04-26 02:01 37.25812 -78.12698 38881 ft 535 kts 59°
2026-04-26 02:02 37.29409 -78.04574 38880 ft 535 kts 59°
2026-04-26 02:02 37.32876 -77.96729 38885 ft 536 kts 59°
2026-04-26 02:03 37.36647 -77.88260 38877 ft 534 kts 56°
2026-04-26 02:03 37.41268 -77.81103 38877 ft 528 kts 39°
2026-04-26 02:04 37.47086 -77.75618 38901 ft 516 kts 27°
2026-04-26 02:04 37.53133 -77.70776 38902 ft 518 kts 27°
2026-04-26 02:05 37.59211 -77.65900 38905 ft 517 kts 27°
2026-04-26 02:05 37.65252 -77.61034 38905 ft 517 kts 27°
2026-04-26 02:06 37.71361 -77.56097 38919 ft 520 kts 27°
2026-04-26 02:06 37.77396 -77.51204 38917 ft 516 kts 27°
2026-04-26 02:07 37.83472 -77.46268 38921 ft 519 kts 27°
2026-04-26 02:07 37.89524 -77.41338 38913 ft 517 kts 27°
2026-04-26 02:08 37.95533 -77.36433 38909 ft 516 kts 28°
2026-04-26 02:08 38.01624 -77.31454 38896 ft 519 kts 28°
2026-04-26 02:09 38.07624 -77.26544 38896 ft 516 kts 28°
2026-04-26 02:09 38.13691 -77.21572 38915 ft 519 kts 28°
2026-04-26 02:10 38.19745 -77.16597 38909 ft 516 kts 28°
2026-04-26 02:10 38.25783 -77.11627 38915 ft 517 kts 28°
2026-04-26 02:11 38.31736 -77.06573 38925 ft 520 kts 32°
2026-04-26 02:11 38.37515 -77.00951 38924 ft 521 kts 33°
2026-04-26 02:12 38.43233 -76.95380 38909 ft 521 kts 33°
2026-04-26 02:12 38.49008 -76.89773 38907 ft 521 kts 33°
2026-04-26 02:13 38.54771 -76.84179 38925 ft 521 kts 33°
2026-04-26 02:13 38.60533 -76.78584 38932 ft 520 kts 32°
2026-04-26 02:14 38.66276 -76.73001 38946 ft 520 kts 32°
2026-04-26 02:14 38.72028 -76.67401 38954 ft 521 kts 32°
2026-04-26 02:15 38.77800 -76.61771 38938 ft 520 kts 32°
2026-04-26 02:15 38.83550 -76.56151 38958 ft 522 kts 32°
2026-04-26 02:15 38.86418 -76.53340 38706 ft 515 kts 33°
2026-04-26 02:16 38.89251 -76.50564 37601 ft 518 kts 33°
2026-04-26 02:16 38.92086 -76.47784 36519 ft 521 kts 33°
2026-04-26 02:16 38.94975 -76.44949 35782 ft 519 kts 33°
2026-04-26 02:16 38.97823 -76.42149 35023 ft 521 kts 33°
2026-04-26 02:17 39.00717 -76.39302 34088 ft 526 kts 33°
2026-04-26 02:17 39.03581 -76.36478 33023 ft 530 kts 34°
2026-04-26 02:17 39.06383 -76.33359 31987 ft 535 kts 40°
2026-04-26 02:17 39.09117 -76.30119 30975 ft 537 kts 40°
2026-04-26 02:18 39.11858 -76.26867 30199 ft 533 kts 40°
2026-04-26 02:18 39.14572 -76.23654 29700 ft 524 kts 40°
2026-04-26 02:18 39.17233 -76.20513 29143 ft 517 kts 40°
2026-04-26 02:18 39.19853 -76.17423 28544 ft 511 kts 40°
2026-04-26 02:19 39.22456 -76.14357 27931 ft 506 kts 40°
2026-04-26 02:19 39.25036 -76.11319 27304 ft 501 kts 40°
2026-04-26 02:19 39.27624 -76.08273 26694 ft 496 kts 40°
2026-04-26 02:19 39.30125 -76.05328 26288 ft 487 kts 40°
2026-04-26 02:20 39.32618 -76.02393 25911 ft 488 kts 39°
2026-04-26 02:20 39.35105 -75.99462 25511 ft 487 kts 40°
2026-04-26 02:20 39.37596 -75.96526 25077 ft 483 kts 40°
2026-04-26 02:20 39.40085 -75.93587 24658 ft 479 kts 40°
2026-04-26 02:21 39.42535 -75.90694 24260 ft 475 kts 40°
2026-04-26 02:21 39.44936 -75.87856 23868 ft 471 kts 40°
2026-04-26 02:21 39.47337 -75.85014 23458 ft 468 kts 40°
2026-04-26 02:21 39.49742 -75.82166 23059 ft 463 kts 40°
2026-04-26 02:22 39.52093 -75.79379 22674 ft 458 kts 40°
2026-04-26 02:22 39.54440 -75.76596 22275 ft 454 kts 40°
2026-04-26 02:22 39.56757 -75.73844 21888 ft 451 kts 39°
2026-04-26 02:22 39.59065 -75.71101 21499 ft 447 kts 39°
2026-04-26 02:23 39.61333 -75.68403 21118 ft 443 kts 39°
2026-04-26 02:23 39.63588 -75.65717 20732 ft 439 kts 39°
2026-04-26 02:23 39.65832 -75.63042 20355 ft 436 kts 39°
2026-04-26 02:23 39.68061 -75.60384 19976 ft 432 kts 39°
2026-04-26 02:24 39.70259 -75.57747 19537 ft 430 kts 40°
2026-04-26 02:24 39.72449 -75.55111 19063 ft 427 kts 39°
2026-04-26 02:24 39.74592 -75.52528 18612 ft 421 kts 39°
2026-04-26 02:24 39.76723 -75.49958 18169 ft 415 kts 39°
2026-04-26 02:25 39.78818 -75.47431 17744 ft 412 kts 40°
2026-04-26 02:25 39.80907 -75.44910 17286 ft 412 kts 40°
2026-04-26 02:25 39.83009 -75.42370 16815 ft 410 kts 40°
2026-04-26 02:25 39.85086 -75.39857 16372 ft 407 kts 40°
2026-04-26 02:26 39.87152 -75.37355 15942 ft 405 kts 40°
2026-04-26 02:26 39.89204 -75.34870 15516 ft 402 kts 41°
2026-04-26 02:26 39.91242 -75.32399 15087 ft 400 kts 41°
2026-04-26 02:26 39.93260 -75.29950 14668 ft 398 kts 41°
2026-04-26 02:27 39.95297 -75.27475 14238 ft 395 kts 41°
2026-04-26 02:27 39.97297 -75.25043 13840 ft 394 kts 40°
2026-04-26 02:27 39.99315 -75.22589 13457 ft 391 kts 41°
2026-04-26 02:27 40.01299 -75.20172 13086 ft 389 kts 41°
2026-04-26 02:28 40.03257 -75.17787 12736 ft 387 kts 40°
2026-04-26 02:28 40.05204 -75.15412 12363 ft 385 kts 40°
2026-04-26 02:28 40.07162 -75.13023 12011 ft 384 kts 41°
2026-04-26 02:28 40.09118 -75.10632 11665 ft 382 kts 41°
2026-04-26 02:29 40.11047 -75.08272 11292 ft 381 kts 40°
2026-04-26 02:29 40.12983 -75.05903 10922 ft 378 kts 40°
2026-04-26 02:29 40.14865 -75.03595 10612 ft 368 kts 40°
2026-04-26 02:29 40.16700 -75.01346 10317 ft 358 kts 40°
2026-04-26 02:30 40.18485 -74.99158 10023 ft 348 kts 40°
2026-04-26 02:30 40.20226 -74.97021 9638 ft 338 kts 40°
2026-04-26 02:30 40.21894 -74.94974 9325 ft 321 kts 41°
2026-04-26 02:30 40.23489 -74.93014 9024 ft 306 kts 41°
2026-04-26 02:31 40.25008 -74.91150 8778 ft 294 kts 42°
2026-04-26 02:31 40.26466 -74.89267 8469 ft 295 kts 46°
2026-04-26 02:31 40.27851 -74.87282 8177 ft 293 kts 47°
2026-04-26 02:31 40.29220 -74.85323 7910 ft 291 kts 47°
2026-04-26 02:32 40.30577 -74.83407 7823 ft 287 kts 47°
2026-04-26 02:32 40.31932 -74.81499 7809 ft 280 kts 47°
2026-04-26 02:32 40.33229 -74.79677 7757 ft 269 kts 47°
2026-04-26 02:32 40.34517 -74.77867 7500 ft 269 kts 48°
2026-04-26 02:33 40.35784 -74.76084 7233 ft 268 kts 49°
2026-04-26 02:33 40.37038 -74.74320 6897 ft 266 kts 50°
2026-04-26 02:33 40.38306 -74.72535 6434 ft 266 kts 50°
2026-04-26 02:33 40.39538 -74.70800 6094 ft 261 kts 51°
2026-04-26 02:34 40.40760 -74.69077 5918 ft 252 kts 51°
2026-04-26 02:34 40.41955 -74.67482 5733 ft 243 kts 50°
2026-04-26 02:34 40.42850 -74.65608 5159 ft 241 kts 75°
2026-04-26 02:34 40.43352 -74.63593 4920 ft 230 kts 77°
2026-04-26 02:35 40.43809 -74.61594 4503 ft 229 kts 78°
2026-04-26 02:35 40.44254 -74.59624 4344 ft 215 kts 77°
2026-04-26 02:35 40.44667 -74.57797 4243 ft 199 kts 77°
2026-04-26 02:35 40.45045 -74.56147 4169 ft 182 kts 78°
2026-04-26 02:36 40.45405 -74.54599 3930 ft 175 kts 77°
2026-04-26 02:36 40.45751 -74.53081 3615 ft 172 kts 77°
2026-04-26 02:36 40.46079 -74.51602 3348 ft 167 kts 77°
2026-04-26 02:36 40.46390 -74.50156 3084 ft 163 kts 77°
2026-04-26 02:37 40.46694 -74.48698 3021 ft 165 kts 77°
2026-04-26 02:37 40.46994 -74.47262 3014 ft 165 kts 77°
2026-04-26 02:37 40.47299 -74.45812 3013 ft 164 kts 77°
2026-04-26 02:37 40.47608 -74.44350 3015 ft 165 kts 77°
2026-04-26 02:38 40.48105 -74.43006 3013 ft 166 kts 61°
2026-04-26 02:38 40.48587 -74.41621 3029 ft 168 kts 76°
2026-04-26 02:38 40.48902 -74.40148 3022 ft 166 kts 77°
2026-04-26 02:38 40.49202 -74.38702 3025 ft 165 kts 77°
2026-04-26 02:39 40.49501 -74.37240 3026 ft 166 kts 77°
2026-04-26 02:39 40.49805 -74.35770 3019 ft 164 kts 77°
2026-04-26 02:39 40.50105 -74.34328 3025 ft 164 kts 78°
2026-04-26 02:39 40.50402 -74.32892 3023 ft 164 kts 78°
2026-04-26 02:40 40.50706 -74.31428 3024 ft 165 kts 78°
2026-04-26 02:40 40.51005 -74.29992 3023 ft 165 kts 78°
2026-04-26 02:40 40.51320 -74.28543 3021 ft 166 kts 70°
2026-04-26 02:40 40.52037 -74.27363 3023 ft 171 kts 41°
2026-04-26 02:41 40.53099 -74.26601 3025 ft 175 kts 31°
2026-04-26 02:41 40.54216 -74.25936 3026 ft 177 kts 31°
2026-04-26 02:41 40.55341 -74.25246 2805 ft 179 kts 31°
2026-04-26 02:41 40.56422 -74.24575 2586 ft 164 kts 32°
2026-04-26 02:42 40.57438 -74.23937 2376 ft 155 kts 32°
2026-04-26 02:42 40.58394 -74.23330 2182 ft 152 kts 32°
2026-04-26 02:42 40.59339 -74.22745 1991 ft 147 kts 31°
2026-04-26 02:42 40.60215 -74.22181 1784 ft 129 kts 36°
2026-04-26 02:43 40.61734 -74.21226 1412 ft 123 kts 33°
2026-04-26 02:43 40.62517 -74.20727 1248 ft 126 kts 33°
2026-04-26 02:43 40.63301 -74.20227 1070 ft 123 kts 31°
2026-04-26 02:44 40.64074 -74.19747 907 ft 121 kts 34°
2026-04-26 02:44 40.64815 -74.19255 704 ft 119 kts 34°
2026-04-26 02:44 40.65573 -74.18793 584 ft 120 kts 32°
2026-04-26 02:44 40.66335 -74.18323 434 ft 122 kts 33°
2026-04-26 02:45 40.67093 -74.17833 264 ft 120 kts 34°
2026-04-26 02:45 40.67829 -74.17374 83 ft 116 kts 29°
2026-04-26 02:45 40.68502 -74.16956 19 ft 81 kts 26°
2026-04-26 02:45 40.68878 -74.16718 19 ft 45 kts 26°
2026-04-26 02:46 40.69122 -74.16595 19 ft 31 kts
2026-04-26 02:46 40.69303 -74.16600 19 ft 22 kts 355°
2026-04-26 02:46 40.69411 -74.16659 19 ft 13 kts 302°
2026-04-26 02:46 40.69446 -74.16750 18 ft 10 kts 296°
2026-04-26 02:47 40.69484 -74.16856 18 ft 15 kts 296°
2026-04-26 02:47 40.69507 -74.16917 18 ft 2 kts 296°
2026-04-26 02:47 40.69528 -74.16975 18 ft 13 kts 294°
2026-04-26 02:47 40.69529 -74.17062 18 ft 0 kts 254°
2026-04-26 02:48 40.69529 -74.17068 18 ft 1 kts 272°
2026-04-26 02:48 40.69540 -74.17088 18 ft 6 kts 330°
2026-04-26 02:48 40.69589 -74.17108 18 ft 8 kts 344°
2026-04-26 02:48 40.69674 -74.17156 18 ft 18 kts 333°
2026-04-26 02:49 40.69781 -74.17255 18 ft 19 kts 317°
2026-04-26 02:49 40.69868 -74.17398 18 ft 19 kts 299°
2026-04-26 02:49 40.69904 -74.17570 18 ft 18 kts 278°
2026-04-26 02:49 40.69972 -74.17702 18 ft 18 kts 295°
2026-04-26 02:50 40.69992 -74.17872 18 ft 19 kts 274°
2026-04-26 02:50 40.69967 -74.17949 18 ft 2 kts 186°
2026-04-26 02:50 40.69945 -74.17952 18 ft 3 kts 184°
2026-04-26 02:50 40.69928 -74.17954 18 ft 2 kts 184°
2026-04-26 02:51 40.69920 -74.17954 18 ft 0 kts 184°